Location: Newark
(40.9833°N, 0.0333°W)
Time: 06:01:34
(UTC+00:00)

Vanguard 2 Rocket - Pass Details

Date: 05 November 2020
Orbit: 554 x 3326 km, 32.9° (Epoch: 24 November)

Event Time Altitude Azimuth Distance (km) Brightness Sun altitude
Rises 17:09:49 0° 252° (WSW) 3,205 13.0 -4.2°
Reaches altitude 10° 17:12:45 10° 240° (WSW) 2,048 10.4 -4.7°
Maximum altitude 17:16:31 28° 181° (S) 1,084 7.5 -5.4°
Drops below altitude 10° 17:19:54 10° 121° (ESE) 1,824 8.1 -6.0°
Enters shadow 17:21:44 - 110° (ESE) 2,529 8.7 -6.4°
Sets 17:22:21 0° 108° (ESE) 2,779 - -6.5°
